Regional Weather Roundup
Issued by NWS

Home | Current Version | Previous Version | Graphics & Text | Print | Product List | Glossary On
Versions: 1 2 3 4 5 6 7 8 9 10 11 12 13 14 15 16 17 18 19 20 21 22 23 24 25 26 27 28 29 30 31 32 33 34 35 36 37 38 39 40 41 42 43 44 45 46 47 48 49 50
000
ASUS45 KPSR 211210
RWRAZ

ARIZONA HOURLY REGIONAL WEATHER ROUNDUP
NATIONAL WEATHER SERVICE PHOENIX AZ
500 AM MST TUE FEB 21 2017

NOTE: FAIR INDICATES FEW OR NO CLOUDS BELOW 12,000 FEET WITH NO
SIGNIFICANT WEATHER AND/OR OBSTRUCTIONS TO VISIBILITY.

AZZ001>003-036-211300-
NORTHWEST ARIZONA

CITY           SKY/WX    TMP DP  RH WIND       PRES   REMARKS
BULLHEAD CITY  CLOUDY    57  52  82 CALM      30.28S
KINGMAN        CLEAR     42  39  89 CALM      30.31F
6HR MIN TEMP:  42; 6HR MAX TEMP:  47;

$$

AZZ004>008-015-016-018-211300-
NORTH CENTRAL ARIZONA

CITY           SKY/WX    TMP DP  RH WIND       PRES   REMARKS
GRAND CANYON   CLOUDY    34  34 100 CALM      30.39S
6HR MIN TEMP:  30; 6HR MAX TEMP:  38;

WILLIAMS       CLEAR     32  30  93 S7        30.40R WCI  26
PRESCOTT       CLEAR     37  36  96 S5        30.36S WCI  33
6HR MIN TEMP:  35; 6HR MAX TEMP:  40;

FLAGSTAFF      CLEAR     32  31  96 VRB3      30.39S
6HR MIN TEMP:  31; 6HR MAX TEMP:  37;

PAYSON         CLEAR     41  37  87 CALM      30.38S
PAGE           MOCLDY    45  36  70 S3        30.30R
6HR MIN TEMP:  44; 6HR MAX TEMP:  49;

$$

AZZ009>014-017-211300-
NORTHEAST ARIZONA

CITY           SKY/WX    TMP DP  RH WIND       PRES   REMARKS
WINSLOW        CLEAR     35  33  92 SE6       30.36R WCI  30
6HR MIN TEMP:  34; 6HR MAX TEMP:  44;

SAINT JOHNS    CLEAR     33  29  85 S3        30.37S
6HR MIN TEMP:  33; 6HR MAX TEMP:  39;

WINDOW ROCK    CLEAR     27  23  85 CALM      30.40S
6HR MIN TEMP:  27; 6HR MAX TEMP:  36;

SHOW LOW       CLEAR     32  28  86 CALM      30.40S
$$

AZZ023-211300-
GREATER PHOENIX AREA

CITY           SKY/WX    TMP DP  RH WIND       PRES   REMARKS
PHOENIX        PTCLDY    53  50  89 E3        30.27S
6HR MIN TEMP:  53; 6HR MAX TEMP:  59;

BUCKEYE        CLEAR     48  48 100 N5        30.29S
LUKE AFB       CLEAR     50  50 100 N3        30.28R
6HR MIN TEMP:  50; 6HR MAX TEMP:  56;

DEER VALLEY    CLEAR     50  48  93 CALM      30.28R
6HR MIN TEMP:  50; 6HR MAX TEMP:  56;

SCOTTSDALE     CLEAR     51  47  86 CALM      30.28R
6HR MIN TEMP:  50; 6HR MAX TEMP:  57;

MESA-GATEWAY   CLEAR     48  46  93 VRB3      30.30R
$$

AZZ027-028-211300-
SOUTHWEST MARICOPA COUNTY AND PINAL COUNTY

CITY           SKY/WX    TMP DP  RH WIND       PRES   REMARKS
CASA GRANDE    NOT AVBL
GILA BEND      FAIR      50  49  94 S5        30.27S
6HR MIN TEMP:  50; 6HR MAX TEMP:  58;

$$

AZZ503-504-507>509-211300-
SOUTHEAST ARIZONA

CITY           SKY/WX    TMP DP  RH WIND       PRES   REMARKS
TUCSON         CLEAR     46  42  86 S7        30.31F
6HR MIN TEMP:  46; 6HR MAX TEMP:  54;

DAVIS-MONTHAN  CLEAR     45  43  92 SE9       30.30F
6HR MIN TEMP:  45; 6HR MAX TEMP:  52;

NOGALES        CLEAR     39  36  89 CALM      30.31R
6HR MIN TEMP:  39; 6HR MAX TEMP:  49;

SIERRA VISTA   CLEAR     44  40  86 S5        30.34S
6HR MIN TEMP:  42; 6HR MAX TEMP:  48;

DOUGLAS        CLEAR     37  36  96 NW3       30.33R
6HR MIN TEMP:  37; 6HR MAX TEMP:  44;

SAFFORD        CLEAR     41  39  93 SE3       30.29S
6HR MIN TEMP:  40; 6HR MAX TEMP:  49;

$$

AZZ020-021-025-026-031-211300-
SOUTHWEST ARIZONA

CITY           SKY/WX    TMP DP  RH WIND       PRES   REMARKS
YUMA           CLEAR     56  52  86 CALM      30.26S
6HR MIN TEMP:  56; 6HR MAX TEMP:  60;

$$

CAZ031-033-041-043-047-048-061-211300-
SOUTHERN CALIFORNIA

CITY           SKY/WX    TMP DP  RH WIND       PRES   REMARKS
DOWNTOWN L.A.  CLOUDY    59  56  89 CALM      30.29F
6HR MIN TEMP:  59; 6HR MAX TEMP:  61;

L.A. AIRPORT   MOCLDY    58  56  93 CALM      30.29F
6HR MIN TEMP:  58; 6HR MAX TEMP:  59;

SAN DIEGO      PTCLDY    56  50  80 CALM      30.30F
6HR MIN TEMP:  56; 6HR MAX TEMP:  59;

BURBANK        CLOUDY    57  53  86 CALM      30.28F
6HR MIN TEMP:  56; 6HR MAX TEMP:  57;

ONTARIO        CLOUDY    56  53  90 CALM      30.29F
6HR MIN TEMP:  55; 6HR MAX TEMP:  56;

RIVERSIDE      CLOUDY    57  55  93 CALM      30.29F
6HR MIN TEMP:  56; 6HR MAX TEMP:  57; 6HR PCP: TRACE;

PALM SPRINGS   PTCLDY    57  54  89 W3        30.29S
6HR MIN TEMP:  57; 6HR MAX TEMP:  61;

EL CENTRO NAS  FOG       50  49  96 CALM      30.27S VSB 1
6HR MIN TEMP:  51; 6HR MAX TEMP:  58;

IMPERIAL       CLEAR     51  49  92 CALM      30.25S
6HR MIN TEMP:  50; 6HR MAX TEMP:  62;

BLYTHE         CLEAR     53  53 100 CALM      30.26F
6HR MIN TEMP:  53; 6HR MAX TEMP:  62;

NEEDLES        PTCLDY    56  51  84 CALM      30.27S
6HR MIN TEMP:  56; 6HR MAX TEMP:  60;

$$

NVZ020-UTZ003-211300-
SOUTHERN NEVADA-UTAH

CITY           SKY/WX    TMP DP  RH WIND       PRES   REMARKS
LAS VEGAS      PTCLDY    59  45  59 S12G18    30.18F
6HR MIN TEMP:  59; 6HR MAX TEMP:  61;

SALT LAKE CITY PTCLDY    52  38  58 S25G39    30.03R
6HR MIN TEMP:  52; 6HR MAX TEMP:  52;

$$

NMZ009-TXZ055-211300-
NEW MEXICO-WEST TEXAS

CITY           SKY/WX    TMP DP  RH WIND       PRES   REMARKS
ALBUQUERQUE    CLOUDY    42  33  70 N9        30.34S
6HR MIN TEMP:  42; 6HR MAX TEMP:  48;

EL PASO        CLEAR     45  31  58 SE7       30.25R
6HR MIN TEMP:  43; 6HR MAX TEMP:  56;

$$


........................KEY........................
SKY/WX - SKY CONDITION/WEATHER
TMP    - TEMPERATURE IN FAHRENHEIT
DP     - DEW POINT IN FAHRENHEIT
RH     - RELATIVE HUMIDITY IN PERCENT
WIND   - DIRECTION AND SPEED IN MILES PER HOUR (MPH)
VRB    - VARIABLE WIND DIRECTION
PRES   - MEAN SEA LEVEL PRESSURE IN INCHES OF MERCURY
         F - FALLING PRESSURE   R - RISING PRESSURE
         S - STEADY PRESSURE
VSB    - VISIBILITY IN MILES
HX     - HEAT INDEX IN FAHRENHEIT
WCI    - WIND CHILL INDEX IN FAHRENHEIT
TC     - TEMPERATURE IN CELSIUS WHICH IS ALSO KNOWN AS
         TEMPERATURE IN CENTIGRADE
AFB    - AIR FORCE BASE
         LUKE AFB IS LUKE AIR FORCE BASE
         DAVIS-MONTHAN IS DAVIS-MONTHAN AIR FORCE BASE
NAS    - NAVAL AIR STATION
         EL CENTRO NAS IS EL CENTRO NAVAL AIR STATION
N/A    - NOT AVAILABLE




USA.gov is the U.S. government's official web portal to all federal, state and local government web resources and services.